User: anonymous   Login
Location: Unspecified
(0.0000°N, 0.0000°E)
Time: 08:53:41
(UTC+00:00)
Language:

QB50P2 - Orbit

View from above orbital plane
View from above orbital plane
View from above satellite
View from above satellite

Ground track
Ground track

The orbit data is extracted from the following two-line orbital elements,

1 40032U 14033Y   24063.87901451  .00013400  00000-0  11802-2 0  9992
2 40032  97.9967  13.7848 0011484 137.0558 223.1561 14.96550861526914
Epoch (UTC): 03 March 2024 21:05:46
Eccentricity: 0.0011484
inclination: 97.9967°
perigee height: 569 km
apogee height: 585 km
right ascension of ascending node: 13.7848°
argument of perigee: 137.0558°
revolutions per day: 14.96550861
mean anomaly at epoch: 223.1561°
orbit number at epoch: 52691

The dashed part of the orbit path shows where the satellite is in the earth's shadow,  

DLR